Location: Beuvrequen
(50.8014°N, 1.6652°E)
Time: 03:56:49
(UTC+00:00)

Lacrosse 4 Rocket - Pass Details

Date: 03 June 2022
Orbit: 541 x 611 km, 68.0° (Epoch: 04 July)

Event Time Altitude Azimuth Distance (km) Brightness Sun altitude
Exits shadow 01:58:14 13° 179° (S) 1,669 3.3 -11.7°
Maximum altitude 02:01:32 37° 116° (ESE) 897 2.4 -11.5°
Drops below altitude 10° 02:05:23 10° 49° (NE) 1,861 5.3 -11.2°
Sets 02:07:41 0° 41° (NE) 2,750 6.9 -11.0°
